Mattoon, IL

6:20 AM CDT on October 15, 2019 (GMT -0500)
Coles County Memorial

Weather History for KMTO - May, 2019

Change the Weather History Date:

Friday, May 10, 2019

  Actual Average Record
Temperature  
Mean Temperature 52 °F 62 °F  
Max Temperature 60 °F 72 °F 92 °F (1963)
Min Temperature 44 °F 52 °F 28 °F (1966)
Degree Days  
Heating Degree Days 13 5  
Month to date heating degree days 56 58  
Since 1 July heating degree days 5443 5320  
Cooling Degree Days 0 2  
Month to date cooling degree days 5 11  
Year to date cooling degree days 10 25  
Growing Degree Days 3 (Base 50)    
Moisture  
Dew Point 40 °F    
Average Humidity 71    
Maximum Humidity 92    
Minimum Humidity 49    
Precipitation  
Precipitation 0.00 in 0.15 in 1.76 in (2003)
Month to date precipitation 0.74 1.53  
Year to date precipitation 9.76 11.51  
Sea Level Pressure  
Sea Level Pressure 30.11 in    
Wind  
Wind Speed 9 mph (NNW)    
Max Wind Speed 18 mph    
Max Gust Speed 22 mph    
Visibility 10 miles    
Events      
T = Trace of Precipitation, MM = Missing Value Source: NWS Daily Summary

Daily Weather History Graph

Daily Weather History Graph

Search for Another Location

Airport or City:

Astronomy

May. 10, 2019 Rise Set
Actual Time 5:44 AM CDT 7:55 PM CDT
Civil Twilight 5:14 AM CDT 8:25 PM CDT
Nautical Twilight 4:37 AM CDT 9:02 PM CDT
Astronomical Twilight 3:57 AM CDT 9:42 PM CDT
Moon 10:44 AM CDT (5/10) 12:48 AM CDT (5/10)
Length of Visible Light 15h 10m
Length of Day
14h 11m
Waxing Crescent, 35% of the Moon is Illuminated
May 10
Waxing Crescent
May 11
First Quarter
May 18
Full
May 26
Last Quarter
Jun 3
New

Hourly Weather History & Observations

Time (CDT) Temp. Windchill Dew Point Humidity Pressure Visibility Wind Dir Wind Speed Gust Speed Precip Events Conditions
12:53 AM 48.9 °F - 41.0 °F 74% 30.00 in 10.0 mi NW 18.4 mph 24.2 mph N/A   Overcast
1:53 AM 48.0 °F - 39.9 °F 74% 30.03 in 10.0 mi WNW 12.7 mph - N/A   Overcast
2:53 AM 46.9 °F - 39.9 °F 77% 30.03 in 10.0 mi WNW 9.2 mph - N/A   Overcast
3:53 AM 46.9 °F - 41.0 °F 80% 30.04 in 10.0 mi WNW 11.5 mph - N/A   Overcast
4:53 AM 46.9 °F - 41.0 °F 80% 30.04 in 10.0 mi WNW 11.5 mph - N/A   Overcast
5:11 AM 46.9 °F - 41.0 °F 80% 30.06 in 10.0 mi WNW 6.9 mph - N/A   Overcast
5:50 AM 46.4 °F 43.5 °F 41.0 °F 81% 30.07 in 10.0 mi WNW 5.8 mph - N/A   Overcast
5:53 AM 46.9 °F - 41.0 °F 80% 30.08 in 10.0 mi WNW 8.1 mph - N/A   Overcast
6:34 AM 46.9 °F - 39.0 °F 74% 30.08 in 10.0 mi WNW 11.5 mph - N/A   Overcast
6:53 AM 46.9 °F - 39.9 °F 77% 30.09 in 10.0 mi NW 12.7 mph - N/A   Overcast
7:53 AM 48.0 °F - 39.9 °F 74% 30.11 in 10.0 mi NNW 13.8 mph - N/A   Overcast
8:43 AM 48.0 °F - 37.0 °F 66% 30.13 in 10.0 mi NNW 12.7 mph - N/A   Overcast
8:53 AM 48.0 °F - 37.0 °F 66% 30.14 in 10.0 mi NW 13.8 mph - N/A   Overcast
9:53 AM 48.9 °F - 37.9 °F 66% 30.15 in 10.0 mi NNW 11.5 mph - N/A   Overcast
10:53 AM 48.9 °F - 37.9 °F 66% 30.16 in 10.0 mi North 10.4 mph - N/A   Overcast
11:53 AM 51.1 °F - 39.9 °F 66% 30.16 in 10.0 mi NNW 10.4 mph - N/A   Overcast
12:42 PM 51.1 °F - 39.9 °F 66% 30.16 in 10.0 mi NNE 6.9 mph - N/A   Overcast
12:53 PM 52.0 °F - 39.9 °F 63% 30.16 in 10.0 mi Variable 5.8 mph - N/A   Overcast
1:53 PM 53.1 °F - 39.9 °F 61% 30.17 in 10.0 mi NE 5.8 mph - N/A   Overcast
2:53 PM 55.9 °F - 39.9 °F 55% 30.15 in 10.0 mi NW 9.2 mph 17.3 mph N/A   Scattered Clouds
3:53 PM 57.0 °F - 41.0 °F 55% 30.15 in 10.0 mi North 10.4 mph - N/A   Overcast
4:53 PM 60.1 °F - 41.0 °F 49% 30.14 in 10.0 mi North 9.2 mph - N/A   Mostly Cloudy
5:53 PM 59.0 °F - 41.0 °F 51% 30.13 in 10.0 mi North 10.4 mph - N/A   Scattered Clouds
6:53 PM 57.0 °F - 41.0 °F 55% 30.13 in 10.0 mi NNE 6.9 mph - N/A   Mostly Cloudy
7:53 PM 53.1 °F - 43.0 °F 69% 30.13 in 10.0 mi NNE 5.8 mph - N/A   Clear
8:53 PM 52.0 °F - 42.1 °F 69% 30.15 in 10.0 mi NNE 4.6 mph - N/A   Clear
9:53 PM 48.9 °F - 41.0 °F 74% 30.16 in 10.0 mi North 4.6 mph - N/A   Clear
10:53 PM 46.0 °F - 41.0 °F 83% 30.14 in 10.0 mi Calm Calm - N/A   Clear
11:53 PM 45.0 °F 42.6 °F 42.1 °F 90% 30.13 in 10.0 mi SE 4.6 mph - N/A   Clear